Year,Month,Day,Hour,Minute,Value (Times are PST for temperature in C)
2015,10,31,00,00,11.30
2015,10,31,00,01,11.30
2015,10,31,00,02,11.30
2015,10,31,00,03,11.30
2015,10,31,00,04,11.30
2015,10,31,00,05,11.30
2015,10,31,00,06,11.30
2015,10,31,00,07,11.30
2015,10,31,00,08,11.30
2015,10,31,00,09,11.30
2015,10,31,00,10,11.30
2015,10,31,00,11,11.30
2015,10,31,00,12,11.20
2015,10,31,00,13,11.20
2015,10,31,00,14,11.20
2015,10,31,00,15,11.20
2015,10,31,00,16,11.20
2015,10,31,00,17,11.20
2015,10,31,00,18,11.20
2015,10,31,00,19,11.20
2015,10,31,00,20,11.20
2015,10,31,00,21,11.20
2015,10,31,00,22,11.20
2015,10,31,00,23,11.20
2015,10,31,00,24,11.20
2015,10,31,00,25,11.20
2015,10,31,00,26,11.20
2015,10,31,00,27,11.20
2015,10,31,00,28,11.20
2015,10,31,00,29,11.20
2015,10,31,00,30,11.20
2015,10,31,00,31,11.20
2015,10,31,00,32,11.20
2015,10,31,00,33,11.20
2015,10,31,00,34,11.20
2015,10,31,00,35,11.20
2015,10,31,00,36,11.20
2015,10,31,00,37,11.20
2015,10,31,00,38,11.20
2015,10,31,00,39,11.20
2015,10,31,00,40,11.20
2015,10,31,00,41,11.20
2015,10,31,00,42,11.20
2015,10,31,00,43,11.20
2015,10,31,00,44,11.20
2015,10,31,00,45,11.20
2015,10,31,00,46,11.20
2015,10,31,00,47,11.20
2015,10,31,00,48,11.20
2015,10,31,00,49,11.20
2015,10,31,00,50,11.20
2015,10,31,00,51,11.20
2015,10,31,00,52,11.20
2015,10,31,00,53,11.20
2015,10,31,00,54,11.20
2015,10,31,00,55,11.20
2015,10,31,00,56,11.20
2015,10,31,00,57,11.20
2015,10,31,00,58,11.20
2015,10,31,00,59,11.20
2015,10,31,01,00,11.20
2015,10,31,01,01,11.20
2015,10,31,01,02,11.20
2015,10,31,01,03,11.20
2015,10,31,01,04,11.20
2015,10,31,01,05,11.20
2015,10,31,01,06,11.20
2015,10,31,01,07,11.20
2015,10,31,01,08,11.20
2015,10,31,01,09,11.20
2015,10,31,01,10,11.30
2015,10,31,01,11,11.30
2015,10,31,01,12,11.30
2015,10,31,01,13,11.30
2015,10,31,01,14,11.30
2015,10,31,01,15,11.30
2015,10,31,01,16,11.30
2015,10,31,01,17,11.30
2015,10,31,01,18,11.30
2015,10,31,01,19,11.30
2015,10,31,01,20,11.30
2015,10,31,01,21,11.30
2015,10,31,01,22,11.30
2015,10,31,01,23,11.30
2015,10,31,01,24,11.30
2015,10,31,01,25,11.20
2015,10,31,01,26,11.20
2015,10,31,01,27,11.20
2015,10,31,01,28,11.20
2015,10,31,01,29,11.20
2015,10,31,01,30,11.20
2015,10,31,01,31,11.20
2015,10,31,01,32,11.20
2015,10,31,01,33,11.20
2015,10,31,01,34,11.20
2015,10,31,01,35,11.20
2015,10,31,01,36,11.20
2015,10,31,01,37,11.20
2015,10,31,01,38,11.20
2015,10,31,01,39,11.20
2015,10,31,01,40,11.20
2015,10,31,01,41,11.20
2015,10,31,01,42,11.20
2015,10,31,01,43,11.20
2015,10,31,01,44,11.30
2015,10,31,01,45,11.30
2015,10,31,01,46,11.30
2015,10,31,01,47,11.30
2015,10,31,01,48,11.30
2015,10,31,01,49,11.30
2015,10,31,01,50,11.30
2015,10,31,01,51,11.30
2015,10,31,01,52,11.30
2015,10,31,01,53,11.30
2015,10,31,01,54,11.30
2015,10,31,01,55,11.30
2015,10,31,01,56,11.40
2015,10,31,01,57,11.40
2015,10,31,01,58,11.40
2015,10,31,01,59,11.40
2015,10,31,02,00,11.40
2015,10,31,02,01,11.40
2015,10,31,02,02,11.40
2015,10,31,02,03,11.40
2015,10,31,02,04,11.40
2015,10,31,02,05,11.40
2015,10,31,02,06,11.40
2015,10,31,02,07,11.40
2015,10,31,02,08,11.40
2015,10,31,02,09,11.40
2015,10,31,02,10,11.40
2015,10,31,02,11,11.40
2015,10,31,02,12,11.40
2015,10,31,02,13,11.40
2015,10,31,02,14,11.40
2015,10,31,02,15,11.40
2015,10,31,02,16,11.40
2015,10,31,02,17,11.40
2015,10,31,02,18,11.40
2015,10,31,02,19,11.40
2015,10,31,02,20,11.40
2015,10,31,02,21,11.40
2015,10,31,02,22,11.40
2015,10,31,02,23,11.40
2015,10,31,02,24,11.40
2015,10,31,02,25,11.40
2015,10,31,02,26,11.40
2015,10,31,02,27,11.40
2015,10,31,02,28,11.40
2015,10,31,02,29,11.40
2015,10,31,02,30,11.40
2015,10,31,02,31,11.40
2015,10,31,02,32,11.40
2015,10,31,02,33,11.40
2015,10,31,02,34,11.40
2015,10,31,02,35,11.40
2015,10,31,02,36,11.40
2015,10,31,02,37,11.40
2015,10,31,02,38,11.40
2015,10,31,02,39,11.40
2015,10,31,02,40,11.40
2015,10,31,02,41,11.30
2015,10,31,02,42,11.30
2015,10,31,02,43,11.30
2015,10,31,02,44,11.30
2015,10,31,02,45,11.30
2015,10,31,02,46,11.30
2015,10,31,02,47,11.30
2015,10,31,02,48,11.30
2015,10,31,02,49,11.40
2015,10,31,02,50,11.40
2015,10,31,02,51,11.40
2015,10,31,02,52,11.40
2015,10,31,02,53,11.40
2015,10,31,02,54,11.40
2015,10,31,02,55,11.40
2015,10,31,02,56,11.40
2015,10,31,02,57,11.40
2015,10,31,02,58,11.40
2015,10,31,02,59,11.40
2015,10,31,03,00,11.40
2015,10,31,03,01,11.40
2015,10,31,03,02,11.40
2015,10,31,03,03,11.40
2015,10,31,03,04,11.40
2015,10,31,03,05,11.40
2015,10,31,03,06,11.40
2015,10,31,03,07,11.50
2015,10,31,03,08,11.50
2015,10,31,03,09,11.50
2015,10,31,03,10,11.50
2015,10,31,03,11,11.50
2015,10,31,03,12,11.50
2015,10,31,03,13,11.50
2015,10,31,03,14,11.50
2015,10,31,03,15,11.50
2015,10,31,03,16,11.60
2015,10,31,03,17,11.60
2015,10,31,03,18,11.60
2015,10,31,03,19,11.50
2015,10,31,03,20,11.50
2015,10,31,03,21,11.50
2015,10,31,03,22,11.50
2015,10,31,03,23,11.50
2015,10,31,03,24,11.50
2015,10,31,03,25,11.50
2015,10,31,03,26,11.50
2015,10,31,03,27,11.50
2015,10,31,03,28,11.50
2015,10,31,03,29,11.40
2015,10,31,03,30,11.40
2015,10,31,03,31,11.40
2015,10,31,03,32,11.40
2015,10,31,03,33,11.50
2015,10,31,03,34,11.50
2015,10,31,03,35,11.50
2015,10,31,03,36,11.50
2015,10,31,03,37,11.60
2015,10,31,03,38,11.60
2015,10,31,03,39,11.60
2015,10,31,03,40,11.60
2015,10,31,03,41,11.60
2015,10,31,03,42,11.60
2015,10,31,03,43,11.60
2015,10,31,03,44,11.60
2015,10,31,03,45,11.60
2015,10,31,03,46,11.60
2015,10,31,03,47,11.60
2015,10,31,03,48,11.60
2015,10,31,03,49,11.60
2015,10,31,03,50,11.70
2015,10,31,03,51,11.70
2015,10,31,03,52,11.70
2015,10,31,03,53,11.70
2015,10,31,03,54,11.70
2015,10,31,03,55,11.70
2015,10,31,03,56,11.70
2015,10,31,03,57,11.80
2015,10,31,03,58,11.80
2015,10,31,03,59,11.80
2015,10,31,04,00,11.70
2015,10,31,04,01,11.70
2015,10,31,04,02,11.70
2015,10,31,04,03,11.70
2015,10,31,04,04,11.70
2015,10,31,04,05,11.70
2015,10,31,04,06,11.80
2015,10,31,04,07,11.80
2015,10,31,04,08,11.80
2015,10,31,04,09,11.80
2015,10,31,04,10,11.80
2015,10,31,04,11,11.80
2015,10,31,04,12,11.80
2015,10,31,04,13,11.70
2015,10,31,04,14,11.70
2015,10,31,04,15,11.70
2015,10,31,04,16,11.70
2015,10,31,04,17,11.70
2015,10,31,04,18,11.70
2015,10,31,04,19,11.70
2015,10,31,04,20,11.60
2015,10,31,04,21,11.60
2015,10,31,04,22,11.60
2015,10,31,04,23,11.60
2015,10,31,04,24,11.60
2015,10,31,04,25,11.60
2015,10,31,04,26,11.60
2015,10,31,04,27,11.60
2015,10,31,04,28,11.60
2015,10,31,04,29,11.60
2015,10,31,04,30,11.60
2015,10,31,04,31,11.60
2015,10,31,04,32,11.60
2015,10,31,04,33,11.70
2015,10,31,04,34,11.60
2015,10,31,04,35,11.60
2015,10,31,04,36,11.60
2015,10,31,04,37,11.70
2015,10,31,04,38,11.60
2015,10,31,04,39,11.60
2015,10,31,04,40,11.60
2015,10,31,04,41,11.60
2015,10,31,04,42,11.60
2015,10,31,04,43,11.60
2015,10,31,04,44,11.70
2015,10,31,04,45,11.60
2015,10,31,04,46,11.70
2015,10,31,04,47,11.60
2015,10,31,04,48,11.60
2015,10,31,04,49,11.60
2015,10,31,04,50,11.60
2015,10,31,04,51,11.60
2015,10,31,04,52,11.60
2015,10,31,04,53,11.60
2015,10,31,04,54,11.60
2015,10,31,04,55,11.60
2015,10,31,04,56,11.60
2015,10,31,04,57,11.60
2015,10,31,04,58,11.60
2015,10,31,04,59,11.60
2015,10,31,05,00,11.60
2015,10,31,05,01,11.60
2015,10,31,05,02,11.60
2015,10,31,05,03,11.60
2015,10,31,05,04,11.60
2015,10,31,05,05,11.60
2015,10,31,05,06,11.60
2015,10,31,05,07,11.60
2015,10,31,05,08,11.60
2015,10,31,05,09,11.60
2015,10,31,05,10,11.60
2015,10,31,05,11,11.60
2015,10,31,05,12,11.70
2015,10,31,05,13,11.60
2015,10,31,05,14,11.60
2015,10,31,05,15,11.70
2015,10,31,05,16,11.70
2015,10,31,05,17,11.70
2015,10,31,05,18,11.70
2015,10,31,05,19,11.70
2015,10,31,05,20,11.70
2015,10,31,05,21,11.70
2015,10,31,05,22,11.70
2015,10,31,05,23,11.70
2015,10,31,05,24,11.70
2015,10,31,05,25,11.70
2015,10,31,05,26,11.70
2015,10,31,05,27,11.70
2015,10,31,05,28,11.70
2015,10,31,05,29,11.70
2015,10,31,05,30,11.70
2015,10,31,05,31,11.70
2015,10,31,05,32,11.70
2015,10,31,05,33,11.70
2015,10,31,05,34,11.80
2015,10,31,05,35,11.80
2015,10,31,05,36,11.80
2015,10,31,05,37,11.80
2015,10,31,05,38,11.80
2015,10,31,05,39,11.80
2015,10,31,05,40,11.80
2015,10,31,05,41,11.90
2015,10,31,05,42,11.90
2015,10,31,05,43,11.90
2015,10,31,05,44,11.90
2015,10,31,05,45,11.90
2015,10,31,05,46,11.90
2015,10,31,05,47,11.90
2015,10,31,05,48,11.90
2015,10,31,05,49,11.90
2015,10,31,05,50,11.90
2015,10,31,05,51,11.90
2015,10,31,05,52,11.90
2015,10,31,05,53,11.90
2015,10,31,05,54,11.80
2015,10,31,05,55,11.80
2015,10,31,05,56,11.80
2015,10,31,05,57,11.80
2015,10,31,05,58,11.80
2015,10,31,05,59,11.70
2015,10,31,06,00,11.70
2015,10,31,06,01,11.70
2015,10,31,06,02,11.70
2015,10,31,06,03,11.60
2015,10,31,06,04,11.60
2015,10,31,06,05,11.60
2015,10,31,06,06,11.60
2015,10,31,06,07,11.60
2015,10,31,06,08,11.60
2015,10,31,06,09,11.60
2015,10,31,06,10,11.60
2015,10,31,06,11,11.60
2015,10,31,06,12,11.60
2015,10,31,06,13,11.60
2015,10,31,06,14,11.60
2015,10,31,06,15,11.60
2015,10,31,06,16,11.60
2015,10,31,06,17,11.50
2015,10,31,06,18,11.60
2015,10,31,06,19,11.60
2015,10,31,06,20,11.50
2015,10,31,06,21,11.50
2015,10,31,06,22,11.50
2015,10,31,06,23,11.50
2015,10,31,06,24,11.40
2015,10,31,06,25,11.40
2015,10,31,06,26,11.40
2015,10,31,06,27,11.50
2015,10,31,06,28,11.50
2015,10,31,06,29,11.50
2015,10,31,06,30,11.50
2015,10,31,06,31,11.50
2015,10,31,06,32,11.50
2015,10,31,06,33,11.40
2015,10,31,06,34,11.40
2015,10,31,06,35,11.40
2015,10,31,06,36,11.40
2015,10,31,06,37,11.40
2015,10,31,06,38,11.40
2015,10,31,06,39,11.40
2015,10,31,06,40,11.40
2015,10,31,06,41,11.30
2015,10,31,06,42,11.30
2015,10,31,06,43,11.30
2015,10,31,06,44,11.30
2015,10,31,06,45,11.30
2015,10,31,06,46,11.30
2015,10,31,06,47,11.30
2015,10,31,06,48,11.30
2015,10,31,06,49,11.30
2015,10,31,06,50,11.30
2015,10,31,06,51,11.30
2015,10,31,06,52,11.30
2015,10,31,06,53,11.30
2015,10,31,06,54,11.30
2015,10,31,06,55,11.40
2015,10,31,06,56,11.40
2015,10,31,06,57,11.40
2015,10,31,06,58,11.40
2015,10,31,06,59,11.40
2015,10,31,07,00,11.50
2015,10,31,07,01,11.50
2015,10,31,07,02,11.60
2015,10,31,07,03,11.60
2015,10,31,07,04,11.60
2015,10,31,07,05,11.70
2015,10,31,07,06,11.70
2015,10,31,07,07,11.70
2015,10,31,07,08,11.70
2015,10,31,07,09,11.70
2015,10,31,07,10,11.80
2015,10,31,07,11,11.80
2015,10,31,07,12,11.80
2015,10,31,07,13,11.80
2015,10,31,07,14,11.80
2015,10,31,07,15,11.80
2015,10,31,07,16,11.80
2015,10,31,07,17,11.80
2015,10,31,07,18,11.80
2015,10,31,07,19,11.90
2015,10,31,07,20,11.90
2015,10,31,07,21,11.90
2015,10,31,07,22,11.90
2015,10,31,07,23,12.00
2015,10,31,07,24,12.00
2015,10,31,07,25,12.10
2015,10,31,07,26,12.10
2015,10,31,07,27,12.20
2015,10,31,07,28,12.20
2015,10,31,07,29,12.20
2015,10,31,07,30,12.30
2015,10,31,07,31,12.30
2015,10,31,07,32,12.40
2015,10,31,07,33,12.40
2015,10,31,07,34,12.40
2015,10,31,07,35,12.50
2015,10,31,07,36,12.50
2015,10,31,07,37,12.50
2015,10,31,07,38,12.50
2015,10,31,07,39,12.60
2015,10,31,07,40,12.60
2015,10,31,07,41,12.60
2015,10,31,07,42,12.70
2015,10,31,07,43,12.70
2015,10,31,07,44,12.70
2015,10,31,07,45,12.70
2015,10,31,07,46,12.80
2015,10,31,07,47,12.80
2015,10,31,07,48,12.90
2015,10,31,07,49,12.90
2015,10,31,07,50,13.00
2015,10,31,07,51,13.00
2015,10,31,07,52,13.00
2015,10,31,07,53,13.10
2015,10,31,07,54,13.20
2015,10,31,07,55,13.20
2015,10,31,07,56,13.10
2015,10,31,07,57,13.10
2015,10,31,07,58,13.10
2015,10,31,07,59,13.10
2015,10,31,08,00,13.10
2015,10,31,08,01,13.10
2015,10,31,08,02,13.00
2015,10,31,08,03,13.00
2015,10,31,08,04,13.00
2015,10,31,08,05,13.00
2015,10,31,08,06,12.90
2015,10,31,08,07,12.90
2015,10,31,08,08,12.90
2015,10,31,08,09,12.90
2015,10,31,08,10,12.90
2015,10,31,08,11,13.00
2015,10,31,08,12,13.00
2015,10,31,08,13,13.10
2015,10,31,08,14,13.10
2015,10,31,08,15,13.10
2015,10,31,08,16,13.10
2015,10,31,08,17,13.10
2015,10,31,08,18,13.10
2015,10,31,08,19,13.10
2015,10,31,08,20,13.10
2015,10,31,08,21,13.10
2015,10,31,08,22,13.10
2015,10,31,08,23,13.10
2015,10,31,08,24,13.10
2015,10,31,08,25,13.10
2015,10,31,08,26,13.10
2015,10,31,08,27,13.10
2015,10,31,08,28,13.20
2015,10,31,08,29,13.20
2015,10,31,08,30,13.20
2015,10,31,08,31,13.20
2015,10,31,08,32,13.20
2015,10,31,08,33,13.30
2015,10,31,08,34,13.30
2015,10,31,08,35,13.30
2015,10,31,08,36,13.30
2015,10,31,08,37,13.30
2015,10,31,08,38,13.40
2015,10,31,08,39,13.40
2015,10,31,08,40,13.40
2015,10,31,08,41,13.40
2015,10,31,08,42,13.40
2015,10,31,08,43,13.40
2015,10,31,08,44,13.40
2015,10,31,08,45,13.40
2015,10,31,08,46,13.40
2015,10,31,08,47,13.40
2015,10,31,08,48,13.40
2015,10,31,08,49,13.40
2015,10,31,08,50,13.40
2015,10,31,08,51,13.50
2015,10,31,08,52,13.50
2015,10,31,08,53,13.50
2015,10,31,08,54,13.50
2015,10,31,08,55,13.50
2015,10,31,08,56,13.50
2015,10,31,08,57,13.50
2015,10,31,08,58,13.50
2015,10,31,08,59,13.50
2015,10,31,09,00,13.50
2015,10,31,09,01,13.50
2015,10,31,09,02,13.40
2015,10,31,09,03,13.40
2015,10,31,09,04,13.30
2015,10,31,09,05,13.30
2015,10,31,09,06,13.20
2015,10,31,09,07,13.20
2015,10,31,09,08,13.20
2015,10,31,09,09,13.20
2015,10,31,09,10,13.20
2015,10,31,09,11,13.20
2015,10,31,09,12,13.10
2015,10,31,09,13,13.10
2015,10,31,09,14,13.10
2015,10,31,09,15,13.10
2015,10,31,09,16,13.10
2015,10,31,09,17,13.00
2015,10,31,09,18,13.00
2015,10,31,09,19,13.00
2015,10,31,09,20,13.00
2015,10,31,09,21,13.00
2015,10,31,09,22,13.00
2015,10,31,09,23,13.00
2015,10,31,09,24,13.00
2015,10,31,09,25,13.00
2015,10,31,09,26,12.90
2015,10,31,09,27,12.90
2015,10,31,09,28,12.90
2015,10,31,09,29,12.80
2015,10,31,09,30,12.80
2015,10,31,09,31,12.80
2015,10,31,09,32,12.80
2015,10,31,09,33,12.80
2015,10,31,09,34,12.80
2015,10,31,09,35,12.80
2015,10,31,09,36,12.80
2015,10,31,09,37,12.80
2015,10,31,09,38,12.90
2015,10,31,09,39,12.90
2015,10,31,09,40,13.00
2015,10,31,09,41,13.00
2015,10,31,09,42,13.00
2015,10,31,09,43,13.10
2015,10,31,09,44,13.10
2015,10,31,09,45,13.10
2015,10,31,09,46,13.20
2015,10,31,09,47,13.20
2015,10,31,09,48,13.30
2015,10,31,09,49,13.30
2015,10,31,09,50,13.40
2015,10,31,09,51,13.50
2015,10,31,09,52,13.60
2015,10,31,09,53,13.60
2015,10,31,09,54,13.70
2015,10,31,09,55,13.70
2015,10,31,09,56,13.80
2015,10,31,09,57,13.80
2015,10,31,09,58,13.80
2015,10,31,09,59,13.80
2015,10,31,10,00,13.90
2015,10,31,10,01,13.90
2015,10,31,10,02,13.90
2015,10,31,10,03,13.90
2015,10,31,10,04,13.90
2015,10,31,10,05,13.90
2015,10,31,10,06,13.90
2015,10,31,10,07,13.90
2015,10,31,10,08,13.90
2015,10,31,10,09,13.90
2015,10,31,10,10,13.90
2015,10,31,10,11,13.90
2015,10,31,10,12,13.90
2015,10,31,10,13,13.90
2015,10,31,10,14,13.90
2015,10,31,10,15,13.90
2015,10,31,10,16,13.90
2015,10,31,10,17,14.00
2015,10,31,10,18,14.00
2015,10,31,10,19,14.00
2015,10,31,10,20,14.00
2015,10,31,10,21,14.00
2015,10,31,10,22,14.10
2015,10,31,10,23,14.10
2015,10,31,10,24,14.10
2015,10,31,10,25,14.10
2015,10,31,10,26,14.10
2015,10,31,10,27,14.10
2015,10,31,10,28,14.10
2015,10,31,10,29,14.10
2015,10,31,10,30,14.20
2015,10,31,10,31,14.20
2015,10,31,10,32,14.20
2015,10,31,10,33,14.20
2015,10,31,10,34,14.30
2015,10,31,10,35,14.30
2015,10,31,10,36,14.30
2015,10,31,10,37,14.30
2015,10,31,10,38,14.30
2015,10,31,10,39,14.30
2015,10,31,10,40,14.30
2015,10,31,10,41,14.40
2015,10,31,10,42,14.40
2015,10,31,10,43,14.50
2015,10,31,10,44,14.50
2015,10,31,10,45,14.60
2015,10,31,10,46,14.60
2015,10,31,10,47,14.60
2015,10,31,10,48,14.70
2015,10,31,10,49,14.70
2015,10,31,10,50,14.70
2015,10,31,10,51,14.70
2015,10,31,10,52,14.70
2015,10,31,10,53,14.70
2015,10,31,10,54,14.70
2015,10,31,10,55,14.80
2015,10,31,10,56,14.80
2015,10,31,10,57,14.80
2015,10,31,10,58,14.80
2015,10,31,10,59,14.90
2015,10,31,11,00,14.90
2015,10,31,11,01,14.90
2015,10,31,11,02,14.90
2015,10,31,11,03,14.90
2015,10,31,11,04,14.90
2015,10,31,11,05,14.80
2015,10,31,11,06,14.80
2015,10,31,11,07,14.80
2015,10,31,11,08,14.80
2015,10,31,11,09,14.80
2015,10,31,11,10,14.70
2015,10,31,11,11,14.70
2015,10,31,11,12,14.70
2015,10,31,11,13,14.70
2015,10,31,11,14,14.70
2015,10,31,11,15,14.70
2015,10,31,11,16,14.70
2015,10,31,11,17,14.70
2015,10,31,11,18,14.70
2015,10,31,11,19,14.70
2015,10,31,11,20,14.70
2015,10,31,11,21,14.70
2015,10,31,11,22,14.70
2015,10,31,11,23,14.70
2015,10,31,11,24,14.70
2015,10,31,11,25,14.70
2015,10,31,11,26,14.70
2015,10,31,11,27,14.70
2015,10,31,11,28,14.70
2015,10,31,11,29,14.70
2015,10,31,11,30,14.70
2015,10,31,11,31,14.70
2015,10,31,11,32,14.70
2015,10,31,11,33,14.70
2015,10,31,11,34,14.70
2015,10,31,11,35,14.70
2015,10,31,11,36,14.70
2015,10,31,11,37,14.70
2015,10,31,11,38,14.70
2015,10,31,11,39,14.70
2015,10,31,11,40,14.60
2015,10,31,11,41,14.50
2015,10,31,11,42,14.50
2015,10,31,11,43,14.40
2015,10,31,11,44,14.40
2015,10,31,11,45,14.30
2015,10,31,11,46,14.30
2015,10,31,11,47,14.30
2015,10,31,11,48,14.20
2015,10,31,11,49,14.20
2015,10,31,11,50,14.20
2015,10,31,11,51,14.20
2015,10,31,11,52,14.20
2015,10,31,11,53,14.20
2015,10,31,11,54,14.20
2015,10,31,11,55,14.20
2015,10,31,11,56,14.20
2015,10,31,11,57,14.20
2015,10,31,11,58,14.20
2015,10,31,11,59,14.20
2015,10,31,12,00,14.30
2015,10,31,12,01,14.30
2015,10,31,12,02,14.30
2015,10,31,12,03,14.30
2015,10,31,12,04,14.30
2015,10,31,12,05,14.30
2015,10,31,12,06,14.40
2015,10,31,12,07,14.40
2015,10,31,12,08,14.40
2015,10,31,12,09,14.40
2015,10,31,12,10,14.40
2015,10,31,12,11,14.50
2015,10,31,12,12,14.50
2015,10,31,12,13,14.50
2015,10,31,12,14,14.50
2015,10,31,12,15,14.50
2015,10,31,12,16,14.50
2015,10,31,12,17,14.50
2015,10,31,12,18,14.50
2015,10,31,12,19,14.50
2015,10,31,12,20,14.50
2015,10,31,12,21,14.50
2015,10,31,12,22,14.50
2015,10,31,12,23,14.40
2015,10,31,12,24,14.40
2015,10,31,12,25,14.40
2015,10,31,12,26,14.40
2015,10,31,12,27,14.40
2015,10,31,12,28,14.40
2015,10,31,12,29,14.40
2015,10,31,12,30,14.40
2015,10,31,12,31,14.40
2015,10,31,12,32,14.40
2015,10,31,12,33,14.40
2015,10,31,12,34,14.40
2015,10,31,12,35,14.40
2015,10,31,12,36,14.40
2015,10,31,12,37,14.40
2015,10,31,12,38,14.50
2015,10,31,12,39,14.50
2015,10,31,12,40,14.50
2015,10,31,12,41,14.50
2015,10,31,12,42,14.40
2015,10,31,12,43,14.40
2015,10,31,12,44,14.40
2015,10,31,12,45,14.40
2015,10,31,12,46,14.40
2015,10,31,12,47,14.40
2015,10,31,12,48,14.40
2015,10,31,12,49,14.50
2015,10,31,12,50,14.50
2015,10,31,12,51,14.50
2015,10,31,12,52,14.50
2015,10,31,12,53,14.60
2015,10,31,12,54,14.60
2015,10,31,12,55,14.60
2015,10,31,12,56,14.60
2015,10,31,12,57,14.60
2015,10,31,12,58,14.60
2015,10,31,12,59,14.60
2015,10,31,13,00,14.70
2015,10,31,13,01,14.70
2015,10,31,13,02,14.70
2015,10,31,13,03,14.70
2015,10,31,13,04,14.70
2015,10,31,13,05,14.70
2015,10,31,13,06,14.70
2015,10,31,13,07,14.70
2015,10,31,13,08,14.80
2015,10,31,13,09,14.80
2015,10,31,13,10,14.80
2015,10,31,13,11,14.80
2015,10,31,13,12,14.80
2015,10,31,13,13,14.80
2015,10,31,13,14,14.80
2015,10,31,13,15,14.80
2015,10,31,13,16,14.80
2015,10,31,13,17,14.80
2015,10,31,13,18,14.80
2015,10,31,13,19,14.80
2015,10,31,13,20,14.80
2015,10,31,13,21,14.80
2015,10,31,13,22,14.80
2015,10,31,13,23,14.80
2015,10,31,13,24,14.80
2015,10,31,13,25,14.80
2015,10,31,13,26,14.80
2015,10,31,13,27,14.90
2015,10,31,13,28,14.90
2015,10,31,13,29,14.90
2015,10,31,13,30,14.90
2015,10,31,13,31,15.00
2015,10,31,13,32,15.00
2015,10,31,13,33,15.00
2015,10,31,13,34,15.00
2015,10,31,13,35,15.00
2015,10,31,13,36,15.10
2015,10,31,13,37,15.20
2015,10,31,13,38,15.20
2015,10,31,13,39,15.30
2015,10,31,13,40,15.30
2015,10,31,13,41,15.40
2015,10,31,13,42,15.40
2015,10,31,13,43,15.50
2015,10,31,13,44,15.50
2015,10,31,13,45,15.60
2015,10,31,13,46,15.60
2015,10,31,13,47,15.70
2015,10,31,13,48,15.70
2015,10,31,13,49,15.70
2015,10,31,13,50,15.70
2015,10,31,13,51,15.70
2015,10,31,13,52,15.80
2015,10,31,13,53,15.80
2015,10,31,13,54,15.70
2015,10,31,13,55,15.70
2015,10,31,13,56,15.70
2015,10,31,13,57,15.70
2015,10,31,13,58,15.70
2015,10,31,13,59,15.70
2015,10,31,14,00,15.70
2015,10,31,14,01,15.70
2015,10,31,14,02,15.60
2015,10,31,14,03,15.60
2015,10,31,14,04,15.60
2015,10,31,14,05,15.60
2015,10,31,14,06,15.60
2015,10,31,14,07,15.60
2015,10,31,14,08,15.60
2015,10,31,14,09,15.60
2015,10,31,14,10,15.60
2015,10,31,14,11,15.60
2015,10,31,14,12,15.60
2015,10,31,14,13,15.60
2015,10,31,14,14,15.60
2015,10,31,14,15,15.60
2015,10,31,14,16,15.60
2015,10,31,14,17,15.60
2015,10,31,14,18,15.60
2015,10,31,14,19,15.60
2015,10,31,14,20,15.60
2015,10,31,14,21,15.60
2015,10,31,14,22,15.60
2015,10,31,14,23,15.60
2015,10,31,14,24,15.60
2015,10,31,14,25,15.60
2015,10,31,14,26,15.60
2015,10,31,14,27,15.60
2015,10,31,14,28,15.60
2015,10,31,14,29,15.60
2015,10,31,14,30,15.60
2015,10,31,14,31,15.50
2015,10,31,14,32,15.50
2015,10,31,14,33,15.50
2015,10,31,14,34,15.60
2015,10,31,14,35,15.50
2015,10,31,14,36,15.50
2015,10,31,14,37,15.50
2015,10,31,14,38,15.50
2015,10,31,14,39,15.50
2015,10,31,14,40,15.50
2015,10,31,14,41,15.50
2015,10,31,14,42,15.50
2015,10,31,14,43,15.50
2015,10,31,14,44,15.40
2015,10,31,14,45,15.40
2015,10,31,14,46,15.40
2015,10,31,14,47,15.40
2015,10,31,14,48,15.30
2015,10,31,14,49,15.30
2015,10,31,14,50,15.20
2015,10,31,14,51,15.20
2015,10,31,14,52,15.00
2015,10,31,14,53,15.00
2015,10,31,14,54,15.00
2015,10,31,14,55,15.00
2015,10,31,14,56,14.90
2015,10,31,14,57,14.80
2015,10,31,14,58,14.70
2015,10,31,14,59,14.60
2015,10,31,15,00,14.50
2015,10,31,15,01,14.40
2015,10,31,15,02,14.30
2015,10,31,15,03,14.30
2015,10,31,15,04,14.20
2015,10,31,15,05,14.10
2015,10,31,15,06,14.00
2015,10,31,15,07,14.00
2015,10,31,15,08,13.90
2015,10,31,15,09,13.80
2015,10,31,15,10,13.70
2015,10,31,15,11,13.60
2015,10,31,15,12,13.60
2015,10,31,15,13,13.50
2015,10,31,15,14,13.40
2015,10,31,15,15,13.30
2015,10,31,15,16,13.30
2015,10,31,15,17,13.20
2015,10,31,15,18,13.20
2015,10,31,15,19,13.20
2015,10,31,15,20,13.20
2015,10,31,15,21,13.10
2015,10,31,15,22,13.10
2015,10,31,15,23,13.10
2015,10,31,15,24,13.00
2015,10,31,15,25,13.00
2015,10,31,15,26,13.00
2015,10,31,15,27,13.00
2015,10,31,15,28,13.00
2015,10,31,15,29,13.00
2015,10,31,15,30,13.00
2015,10,31,15,31,13.00
2015,10,31,15,32,13.00
2015,10,31,15,33,13.00
2015,10,31,15,34,13.00
2015,10,31,15,35,13.00
2015,10,31,15,36,13.00
2015,10,31,15,37,13.00
2015,10,31,15,38,13.00
2015,10,31,15,39,12.90
2015,10,31,15,40,12.90
2015,10,31,15,41,12.90
2015,10,31,15,42,12.90
2015,10,31,15,43,12.90
2015,10,31,15,44,12.90
2015,10,31,15,45,12.90
2015,10,31,15,46,12.90
2015,10,31,15,47,12.90
2015,10,31,15,48,12.90
2015,10,31,15,49,12.90
2015,10,31,15,50,12.90
2015,10,31,15,51,12.90
2015,10,31,15,52,13.00
2015,10,31,15,53,13.10
2015,10,31,15,54,13.10
2015,10,31,15,55,13.20
2015,10,31,15,56,13.20
2015,10,31,15,57,13.20
2015,10,31,15,58,13.20
2015,10,31,15,59,13.20
2015,10,31,16,00,13.20
2015,10,31,16,01,13.30
2015,10,31,16,02,13.50
2015,10,31,16,03,13.50
2015,10,31,16,04,13.60
2015,10,31,16,05,13.60
2015,10,31,16,06,13.60
2015,10,31,16,07,13.50
2015,10,31,16,08,13.50
2015,10,31,16,09,13.50
2015,10,31,16,10,13.50
2015,10,31,16,11,13.50
2015,10,31,16,12,13.40
2015,10,31,16,13,13.40
2015,10,31,16,14,13.40
2015,10,31,16,15,13.40
2015,10,31,16,16,13.40
2015,10,31,16,17,13.40
2015,10,31,16,18,13.40
2015,10,31,16,19,13.40
2015,10,31,16,20,13.40
2015,10,31,16,21,13.30
2015,10,31,16,22,13.30
2015,10,31,16,23,13.30
2015,10,31,16,24,13.30
2015,10,31,16,25,13.30
2015,10,31,16,26,13.30
2015,10,31,16,27,13.30
2015,10,31,16,28,13.20
2015,10,31,16,29,13.20
2015,10,31,16,30,13.20
2015,10,31,16,31,13.20
2015,10,31,16,32,13.20
2015,10,31,16,33,13.20
2015,10,31,16,34,13.20
2015,10,31,16,35,13.20
2015,10,31,16,36,13.10
2015,10,31,16,37,13.10
2015,10,31,16,38,13.10
2015,10,31,16,39,13.10
2015,10,31,16,40,13.10
2015,10,31,16,41,13.10
2015,10,31,16,42,13.10
2015,10,31,16,43,13.10
2015,10,31,16,44,13.10
2015,10,31,16,45,13.10
2015,10,31,16,46,13.10
2015,10,31,16,47,13.10
2015,10,31,16,48,13.10
2015,10,31,16,49,13.10
2015,10,31,16,50,13.10
2015,10,31,16,51,13.10
2015,10,31,16,52,13.10
2015,10,31,16,53,13.10
2015,10,31,16,54,13.10
2015,10,31,16,55,13.10
2015,10,31,16,56,13.10
2015,10,31,16,57,13.20
2015,10,31,16,58,13.20
2015,10,31,16,59,13.20
2015,10,31,17,00,13.20
2015,10,31,17,01,13.20
2015,10,31,17,02,13.20
2015,10,31,17,03,13.20
2015,10,31,17,04,13.20
2015,10,31,17,05,13.20
2015,10,31,17,06,13.20
2015,10,31,17,07,13.20
2015,10,31,17,08,13.10
2015,10,31,17,09,13.10
2015,10,31,17,10,13.10
2015,10,31,17,11,13.10
2015,10,31,17,12,13.10
2015,10,31,17,13,13.10
2015,10,31,17,14,13.10
2015,10,31,17,15,13.10
2015,10,31,17,16,13.10
2015,10,31,17,17,13.10
2015,10,31,17,18,13.00
2015,10,31,17,19,13.00